Regional Weather Roundup
Issued by NWS Huntsville, AL

Home | Current Version | Previous Version | Text Only | Print | Product List | Glossary On
Versions: 1 2 3 4 5 6 7 8 9 10 11 12 13 14 15 16 17 18 19 20 21 22 23 24 25 26 27 28 29 30 31 32 33 34 35 36 37 38 39 40 41 42 43 44 45 46 47 48 49 50
000
ASUS44 KHUN 210210
RWRHUN

WEATHER ROUNDUP FOR THE TENNESSEE VALLEY
NATIONAL WEATHER SERVICE HUNTSVILLE AL
900 PM CDT SAT SEP 20 2014

ALZ001>004-210300-
NORTHWEST ALABAMA

CITY           SKY/WX    TMP DP  RH WIND       PRES   REMARKS
COURTLAND HCN    N/A     70 N/A N/A CALM        N/A
RUSSELLVILLE     N/A     68 N/A N/A MISG        N/A
SHOALS AIRPORT PTCLDY    72  66  81 CALM      30.04R
SHOALS TVA RES   N/A     75 N/A N/A MISG        N/A
$$

ALZ005>007-016-210300-
NORTH CENTRAL ALABAMA

CITY           SKY/WX    TMP DP  RH WIND       PRES   REMARKS
CULLMAN AG STN   N/A     68 N/A N/A CALM        N/A
DECATUR AP     CLEAR     70  62  76 CALM      30.04R
HUNTSVILLE AP  CLEAR     74  63  68 CALM      30.03R
HUN NWS/UAH      N/A     75  60  60 N1          N/A
MERIDIANVILLE  CLEAR     66  59  77 CALM      30.05R
VINEMONT AP    FAIR      66  63  89 CALM      30.06R
$$

ALZ008>010-210300-
NORTHEAST ALABAMA

CITY           SKY/WX    TMP DP  RH WIND       PRES   REMARKS
ALBERTVILLE    CLEAR     68  68 100 CALM      30.04S
FORT PAYNE     PTCLDY    66  61  82 CALM      30.04S
SCOTTSBORO AP    N/A     68  64  88 CALM      30.04R
SCOTTSBORO HCN   N/A     66 N/A N/A MISG        N/A
VALLEY HEAD      N/A     66 N/A N/A MISG        N/A
$$

TNZ076-096-097-210300-
SOUTHEASTERN MIDDLE TENNESSEE

CITY           SKY/WX    TMP DP  RH WIND       PRES   REMARKS
FAYETTEVILLE   CLEAR     70  61  73 W13G137   30.06R
TULLAHOMA      NOT AVBL
WINCHESTER     CLEAR     66  63  88 CALM      30.06R
$$

...SURROUNDING SITES...

CITY           SKY/WX    TMP DP  RH WIND       PRES   REMARKS
ATLANTA        CLEAR     74  60  61 E5        30.05R
ANNISTON       CLEAR     69  65  86 CALM      30.04R
BIRMINGHAM     CLEAR     72  65  78 CALM      30.05R
CHATTANOOGA    PTCLDY    72  63  73 CALM      30.04R
CORINTH          N/A     72  68  88 CALM      30.02R
DALTON         CLEAR     66  66 100 CALM      30.04S
GADSDEN        CLEAR     70  63  78 CALM      30.03S
GOLDEN TRNGL   PTCLDY    75  64  69 CALM      30.01R
HALEYVILLE     FAIR      67  65  93 CALM      30.07R
JACKSON TN     CLEAR     71  68  90 S3        30.01R
LEWISBURG      CLOUDY    73  67  81 CALM      30.04R
MEMPHIS        PTCLDY    81  67  62 SE6       30.00R
NASHVILLE      PTCLDY    73  66  78 S3        30.03R
OXFORD MS      FAIR      70  68  94 SE5       30.02S
ROME           CLEAR     68  63  84 N3        30.03R
SAVANNAH       CLEAR     70  70 100 CALM      30.03R
TUPELO         MOCLDY    75  68  78 CALM      30.01R
TUSCALOOSA     CLEAR     78  63  59 VRB3      30.00R
$$

...GULF COAST WEATHER...

CITY           SKY/WX    TMP DP  RH WIND       PRES   REMARKS
GULFPORT       CLEAR     78  68  71 E7        29.97R
PASCAGOULA     CLEAR     71  68  90 NE3       29.99R
MOBILE         PTCLDY    73  68  84 NE6       30.00R
GULF SHORES    CLEAR     74  67  80 CALM      29.98R
PENSACOLA      CLEAR     77  68  73 NE8       29.97R
DESTIN         CLEAR     78  69  73 NE5       29.98R
PANAMA CITY    PTCLDY    77  71  81 NE3       29.98R
APPALACHICOLA  CLEAR     77  68  73 NE6       29.97R
$$




USA.gov is the U.S. government's official web portal to all federal, state and local government web resources and services.